• Join FlightAware (Why Join?)
  • Login
  • US Flag 
03:58AM EST


 

Airport Tracker/Info


-or-


 

Live Flight TrackerFlight Track Log ✈ EJA951 ✈ 16-Jul-2013 ✈ KGPT - KDWH

Flight Track Log - Related Links

Times and Time Zones

All times are in EDT time to prevent confusion due to time zone crossing. See the EJA951 flight status page for this flight to view local times or setup timezone preferences in your user account.

Time Position Orientation Groundspeed Altitude Reporting Facility
EDT Latitude Longitude Course Direction KTS MPH feet Rate Location/Type
01:21PM 30.3603 -89.0475 282° West 237 273 2,800  Level Houston Center
01:22PM 30.3539 -89.1206 264° West 253 291 5,800 2,710 Climbing Houston Center
01:23PM 30.3839 -89.2033 293° West 270 311 8,400 2,613 Climbing Houston Center
01:24PM 30.4158 -89.2972 292° West 302 348 11,200 2,878 Climbing Houston Center
01:25PM 30.4558 -89.4128 292° West 321 369 14,300 2,537 Climbing Houston Center
01:27PM 30.5603 -89.7730 282° West  Level FlightAware Approximate
01:27PM 30.4897 -89.5136 291° West 332 382 16,400  Level Houston Center
01:28PM 30.5250 -89.6203 291° West 353 406 17,700 1,452 Climbing Houston Center
01:29PM 30.5619 -89.7369 290° West 387 445 19,400 1,854 Climbing Houston Center
01:30PM 30.5833 -89.8592 282° West 395 455 21,500 1,756 Climbing Houston Center
01:31PM 30.6100 -90.0128 281° West 410 472 23,000 1,355 Climbing Houston Center
01:32PM 30.6331 -90.1475 281° West 428 493 24,300 1,258 Climbing Houston Center
01:33PM 30.6553 -90.2864 281° West 439 505 25,600 1,258 Climbing Houston Center
01:34PM 30.6794 -90.4283 281° West 450 518 26,900 1,268 Climbing Houston Center
01:35PM 30.7028 -90.5731 281° West 455 524 28,200 1,415 Climbing Houston Center
01:36PM 30.7306 -90.7481 281° West 461 531 29,800 1,306 Climbing Houston Center
01:37PM 30.7542 -90.8953 281° West 464 534 30,900 1,065 Climbing Houston Center
01:38PM 30.7814 -91.0456 282° West 474 545 32,000 968 Climbing Houston Center
01:39PM 30.8019 -91.1872 280° West 482 555 32,900 976 Climbing Houston Center
01:40PM 30.8325 -91.3747 281° West 491 565 34,000 537 Climbing Houston Center
01:41PM 30.8575 -91.5347 280° West 502 578 34,000  Level Houston Center
01:42PM 30.8825 -91.6950 280° West 499 574 34,000  Level Houston Center
01:43PM 30.9061 -91.8519 280° West 491 565 34,000  Level Houston Center
01:44PM 30.9239 -92.0089 278° West 486 559 34,000  Level Houston Center
01:45PM 30.9022 -92.1672 261° West 485 558 34,000  Level Houston Center
01:46PM 30.8756 -92.3267 259° West 494 568 34,000  Level Houston Center
01:47PM 30.8494 -92.4825 259° West 490 564 34,000  Level Houston Center
01:48PM 30.8169 -92.6744 259° West 499 574 34,000 -629 Level Houston Center
01:49PM 30.7911 -92.8364 260° West 503 579 32,700 -1,756 Descending Houston Center
01:50PM 30.7644 -92.9903 259° West 504 580 30,400 -2,400 Descending Houston Center
01:51PM 30.7378 -93.1547 259° West 516 594 27,700 -2,613 Descending Houston Center
01:52PM 30.7097 -93.3169 259° West 519 597 25,000 -2,656 Descending Houston Center
01:53PM 30.6839 -93.4678 259° West 493 567 22,300 -2,419 Descending Houston Center
01:54PM 30.6525 -93.6481 259° West 485 558 20,000 -1,255 Descending Houston Center
01:55PM 30.6303 -93.7706 258° West 460 529 20,000 -195 Level Houston Center
01:56PM 30.6022 -93.9319 259° West 451 519 19,600 -1,095 Descending Houston Center
01:57PM 30.5783 -94.0636 258° West 424 488 17,500 -2,436 Descending Houston Center
01:59PM 30.5469 -94.2361 258° West 411 473 14,200 -2,806 Descending Houston Center
01:59PM 30.5264 -94.3508 258° West 417 480 11,700 -2,191 Descending Houston Center
02:01PM 30.5022 -94.4847 258° West 424 488 10,000 -738 Descending Houston Center
02:02PM 30.4669 -94.6419 255° West 421 484 10,100 -146 Climbing Houston Center
02:03PM 30.4461 -94.7300 255° West 391 450 9,700 -1,026 Descending Houston Center
02:04PM 30.4253 -94.8244 256° West 305 351 8,100 -1,694 Descending Houston Center
02:05PM 30.4053 -94.9167 256° West 297 342 6,200 -1,984 Descending Houston Center
02:06PM 30.3803 -95.0219 255° West 285 328 4,000 -1,073 Descending Houston Center
02:07PM 30.3628 -95.1025 256° West 270 311 4,000  Level Houston Center
02:08PM 30.3378 -95.2083 255° West 274 315 4,000 -290 Level Houston Center
02:09PM 30.3250 -95.2689 256° West 269 310 3,400 -522 Descending Houston Center
02:10PM 30.3097 -95.3350 255° West 239 275 3,000 -613 Descending Houston Center
02:11PM 30.2850 -95.4350 254° West 228 262 2,000 -537 Descending Houston Center
02:12PM 30.2739 -95.4903 257° West 229 264 1,900 -55 Descending Houston Center
02:13PM 30.2592 -95.5514 254° West 218 251 1,900 -44 Level Houston Center
02:14PM 30.2072 -95.5750 201° Southwest 170 196 1,800 -145 Descending Houston Center
02:15PM 30.1753 -95.5697 172° South 183 211 1,600 -212 Descending Houston Center
02:16PM 30.1342 -95.5639 173° South 165 190 1,400 -451 Descending Houston Center
02:17PM 30.0861 -95.5578 174° South 135 155 600 -676 Descending Houston Center